Location: Arsaillier
(45.7306°N, 1.9579°E)
Time: 12:51:51
(UTC+00:00)

Daily predictions for brighter satellites

Satellite Brightness Start Highest point End
(mag) Time Altitude Azimuth Time Altitude Azimuth Time Altitude Azimuth
Cosmos 1980 Rocket 4.4 16:37:34 10° W 16:41:04 16° NW 16:44:35 10° N
Cosmos 2333 Rocket 2.8 16:36:11 10° S 16:41:26 39° ESE 16:46:44 10° NE
Cosmos 304 Rocket 4.2 16:37:46 10° N 16:42:20 41° ENE 16:46:53 10° SE
Cosmos 332 Rocket 3.8 16:39:34 10° NNW 16:44:28 75° ENE 16:49:17 10° SSE
Cosmos 1733 Rocket 4.0 16:42:26 10° NNE 16:46:08 26° ENE 16:49:50 10° SE
USA 215 3.6 16:42:18 10° NE 16:48:44 61° NNW 16:55:09 10° WSW
CENTAUR R/B 3.4 16:41:17 10° NW 16:49:22 84° SW 16:58:06 10° SSE
ERBS 2.4 16:46:16 10° NW 16:49:33 55° NE 16:52:50 10° ESE
Meteor 1-14 Rocket 4.4 16:44:14 10° N 16:50:12 89° W 16:56:02 10° S
Radarsat Rocket 4.3 16:45:03 10° SSE 16:51:24 79° WSW 16:57:19 10° NNW
Cosmos 1869 Rocket 3.6 16:47:45 10° N 16:52:12 88° WSW 16:56:38 10° S
Envisat 3.8 16:47:58 10° SE 16:52:20 30° ENE 16:56:42 10° N
Cosmos 2237 Rocket 3.6 16:50:12 10° SE 16:54:01 19° E 16:57:51 10° ENE
Feng Yun 1-1 Rocket 4.2 16:51:02 10° SSE 16:56:20 61° ENE 17:01:39 10° N
Cosmos 2322 Rocket 3.6 16:53:00 10° WSW 16:58:03 33° NW 17:03:10 10° NNE
Cosmos 1331 Rocket 4.3 16:53:00 10° NNW 16:58:15 74° WSW 17:03:30 10° SSE
Cosmos 1812 3.9 16:55:38 10° SE 16:58:44 24° E 17:01:53 10° NE
Exosat Rocket 4.4 16:54:31 10° SSE 16:59:19 31° ESE 17:03:41 10° NE
PSLV R/B 3.9 16:55:57 10° NNE 17:00:08 74° ESE 17:04:15 10° S
Cosmos 1844 3.9 16:56:14 10° NNW 17:01:58 80° WSW 17:07:34 10° SSE
SL-16 R/B 3.9 16:58:38 10° WSW 17:03:28 28° NW 17:08:18 10° N
Cosmos 371 Rocket 4.2 17:03:05 10° NNW 17:07:52 54° WSW 17:12:37 10° S
Okean O Rocket 3.2 17:04:33 10° SSW 17:08:38 39° W 17:12:43 10° NNW
Cosmos 1536 3.9 17:05:45 10° NNE 17:09:03 24° ENE 17:12:19 10° SE
CZ-4 R/B 2.6 17:07:08 10° ESE 17:09:57 19° ENE 17:12:44 10° NNE
Cosmos 2219 Rocket 2.2 17:06:49 10° SSW 17:12:20 66° ESE 17:17:56 10° NNE
CORIOLIS 4.1 17:12:08 10° SSE 17:17:34 76° ENE 17:23:01 10° N
Okean-O 2.7 17:15:00 10° SSE 17:19:17 53° ENE 17:23:37 10° N
Cosmos 1844 Rocket 3.9 17:14:19 10° NW 17:19:38 47° WSW 17:24:56 10° S
NOAA 12 4.1 17:16:01 10° SSE 17:21:15 62° ENE 17:26:29 10° N
Cosmos 1862 Rocket 3.8 17:17:25 10° SSE 17:21:31 44° E 17:25:42 10° NNE
USA 267 4.1 17:16:59 10° SSE 17:23:19 52° SW 17:29:42 10° WNW
Cosmos 1980 4.4 17:18:44 10° SSE 17:23:44 34° ESE 17:27:28 16° NE
Lacrosse 5 rocket 2.0 17:20:36 10° SSW 17:24:38 39° SE 17:26:52 21° ENE
AQUARIUS 4.2 17:20:18 10° SSE 17:24:48 85° WSW 17:29:20 10° NNW
Cosmos 1500 3.2 17:21:14 10° N 17:24:56 52° ENE 17:28:36 10° SSE
NOSS 3-4 (A) 3.7 17:19:27 10° SW 17:25:26 66° NW 17:31:33 11° NE
NOSS 3-4 (C) 3.7 17:19:33 10° SW 17:25:32 66° NW 17:31:39 11° NE
BREEZE-M DEB (TANK) 2.3 17:19:39 10° WNW 17:25:50 69° NNE 17:27:29 23° E
CZ-4B R/B 4.5 17:25:15 10° NW 17:26:52 13° WNW 17:28:28 10° W
H-2A R/B 2.8 17:23:54 10° S 17:27:37 76° W 17:31:19 10° NNW
Cosmos 2279 Rocket 4.3 17:21:33 10° NNW 17:27:47 74° W 17:34:01 10° S
ATLAS 3B R/B 3.2 17:21:38 10° NW 17:28:15 62° WSW 17:35:02 10° SSE
Cosmos 1340 4.2 17:24:50 10° NNW 17:28:23 38° W 17:31:53 10° SSW
ISS -3.3 17:25:30 10° NW 17:28:46 45° NNE 17:30:12 27° ENE
COSMOS 2428 2.7 17:28:05 10° SSW 17:33:46 88° WNW 17:39:28 10° NNE
SL-4 R/B 1.8 17:31:07 10° WSW 17:34:52 87° NNW 17:36:58 27° ENE
Cosmos 1943 Rocket 4.1 17:33:18 10° NNE 17:34:39 11° NNE 17:34:39 11° NNE
Meteor 1-5 Rocket 4.1 17:31:17 10° N 17:36:55 89° W 17:42:20 10° S
COBE Rocket 3.8 17:32:48 10° N 17:37:28 80° WNW 17:42:07 10° SSW
Cosmos 1707 Rocket 4.3 17:33:23 10° SSW 17:37:45 54° WNW 17:42:10 10° N
CSL-04 Rocket 4.1 17:34:03 10° SE 17:38:51 37° ENE 17:43:41 10° N
STARLINK-67 3.8 17:41:50 10° W 17:44:22 31° NNW 17:44:53 28° N
FengYun 1-2 T 4.1 17:40:52 10° SSE 17:46:16 64° ENE 17:51:43 10° N
YAOGAN 6 2.5 17:43:15 10° SSE 17:46:41 55° ENE 17:50:11 10° N
Nadezhda 4 Rocket 3.9 17:42:10 10° S 17:48:29 78° E 17:54:49 10° N
CSL-04 Debris 4.4 17:44:31 10° SE 17:49:44 47° ENE 17:54:56 10° N
Cosmos 1908 Rocket 3.6 17:52:01 10° N 17:56:23 55° ENE 18:00:40 10° SSE
COSMO-SKYMED 1 2.5 17:53:53 20° NNE 17:56:50 65° ESE 18:01:08 10° S
Shenzhou-11 Module 2.6 17:55:40 10° WSW 17:58:10 40° S 17:58:10 40° S
STARLINK-46 2.7 17:57:25 10° WSW 17:59:57 69° W 17:59:57 69° W
ATLAS 2AS CENTAUR R/B 4.0 17:56:16 10° WSW 18:03:46 41° NW 18:10:07 14° NNE
Cosmos 2251 Rocket 3.5 18:00:00 10° SSW 18:05:19 87° WNW 18:09:04 20° NNE
YAOGAN 1 2.5 18:02:34 10° SSE 18:06:49 62° ENE 18:11:07 10° N
NOAA 11 4.3 18:02:49 10° SE 18:08:04 50° ENE 18:13:20 10° N
Cosmos 1666 2.4 18:06:06 10° N 18:09:51 72° E 18:13:34 10° SSE
BREEZE-M R/B 3.1 18:05:04 10° W 18:09:52 45° N 18:10:05 44° N
Cosmos 2278 Rocket 2.3 18:05:00 10° NNW 18:10:41 76° WSW 18:16:18 10° SSE
Cosmos 2026 Rocket 4.0 18:05:36 10° SSE 18:11:28 53° E 18:15:46 18° NNE
SeaSat 1 3.8 18:14:08 24° NNE 18:14:08 24° NNE 18:16:47 10° N
USA 116 4.4 18:11:45 23° NNE 18:15:06 67° E 18:20:18 10° S
RESURS DK-1 3.4 18:12:31 10° SW 18:16:27 42° WNW 18:18:24 25° N
Cosmos 2360 Rocket 4.4 18:14:57 10° W 18:18:51 19° NW 18:22:47 10° N
SL-16 R/B 3.0 18:18:53 10° S 18:22:46 33° SE 18:22:46 33° SE
Cosmos 2333 Rocket 3.5 18:20:24 10° WSW 18:25:43 38° NW 18:30:14 14° N
Cosmos 2369 Rocket 4.1 18:22:30 10° N 18:23:52 14° NNE 18:23:52 14° NNE
Meteor 1-27 Rocket 4.4 18:21:14 10° SSW 18:26:49 54° WNW 18:32:33 10° N
Okean 1-7 3.5 18:25:11 10° S 18:28:17 46° SSE 18:28:17 46° SSE
USA 215 4.2 18:28:40 27° NNE 18:31:04 35° N 18:36:51 10° WNW
Envisat 4.4 18:26:30 10° SSW 18:31:13 38° W 18:35:59 10° NNW
Cosmos 1627 Rocket 4.3 18:26:16 10° S 18:32:23 82° E 18:37:50 14° N
Cosmos 292 Rocket 3.7 18:27:41 10° NNW 18:32:35 88° ENE 18:33:42 54° SSE
Cosmos 2237 Rocket 2.4 18:31:46 10° SSW 18:37:27 71° WNW 18:39:44 37° NNE
CZ-4 R/B 2.7 18:41:04 10° SSW 18:44:45 37° W 18:48:24 10° NNW
Meteor 1-18 Rocket 4.5 18:44:12 10° S 18:48:43 54° SSE 18:48:43 54° SSE
Cosmos 2219 Rocket 4.1 18:52:18 10° W 18:56:48 24° NW 19:00:10 15° N
Lacrosse 5 rocket 3.1 18:59:51 10° W 19:02:32 30° WNW 19:02:32 30° WNW
ISS -0.7 19:02:19 10° WNW 19:03:06 16° W 19:03:06 16° W
Cosmos 2297 4.1 19:04:10 10° NNW 19:08:43 57° NW 19:08:43 57° NW
SL-4 R/B 4.4 19:11:10 10° WNW 19:12:35 20° WNW 19:12:35 20° WNW
Cosmos 1943 Rocket 4.2 19:14:52 10° NNW 19:16:11 17° NNW 19:16:11 17° NNW
SL-16 R/B 4.4 20:02:49 10° WSW 20:04:43 20° WSW 20:04:43 20° WSW
